Location: Bruneau Dunes Observatory
(42.9024°N, 115.6902°W)
Time: 21:03:40
(UTC-07:00)

Daily predictions for brighter satellites

Satellite Brightness Start Highest point End
(mag) Time Altitude Azimuth Time Altitude Azimuth Time Altitude Azimuth
Cosmos 371 Rocket 4.4 17:33:42 10° NNW 17:38:22 51° WSW 17:43:00 10° S
Cosmos 1908 Rocket 4.3 17:37:13 10° NNE 17:41:07 32° ENE 17:45:00 10° SE
Cosmos 1733 Rocket 3.1 17:36:59 10° N 17:41:26 77° E 17:45:53 10° SSE
Lacrosse 5 3.6 17:38:17 10° WNW 17:42:13 22° NNW 17:46:09 10° NNE
SL-27 R/B 3.3 17:40:36 10° N 17:43:27 25° ENE 17:46:18 10° ESE
Cosmos 1933 3.6 17:39:26 10° SSW 17:43:27 74° W 17:47:30 10° N
Cosmos 1484 Rocket 3.2 17:40:01 10° SE 17:43:40 42° ENE 17:47:24 10° N
Meteor 2-10 Rocket 4.2 17:38:57 10° SSW 17:44:08 62° WNW 17:49:36 10° N
CZ-4 R/B 2.0 17:42:39 10° SE 17:46:05 31° ENE 17:49:30 10° N
Cosmos 1814 Rocket 4.0 17:40:58 10° NNW 17:46:21 75° ENE 17:51:42 10° SSE
COSMOS 2455 3.0 17:43:16 10° SSW 17:49:17 82° WNW 17:55:21 10° NNE
Cosmos 540 Rocket 4.2 17:47:07 10° N 17:51:41 30° ENE 17:56:13 10° ESE
Cosmos 1340 3.5 17:48:16 10° SSW 17:51:58 54° WNW 17:55:41 10° N
Timation 1 Rocket 4.4 17:46:47 10° SSW 17:52:47 83° ESE 17:58:49 10° NNE
Cosmos 1862 Rocket 3.6 17:50:21 10° S 17:54:47 88° E 17:59:17 10° N
IRAS Rocket 4.3 17:49:20 10° SSE 17:54:52 87° WSW 18:00:26 10° NNW
Cosmos 44 4.2 17:51:08 10° NNW 17:55:04 26° NE 17:59:09 10° ESE
CSL-04 Rocket 3.6 17:50:30 10° SSE 17:55:46 78° ENE 18:01:09 10° NNW
Cosmos 1437 2.9 17:53:16 10° SSW 17:56:26 73° W 17:59:37 10° N
Cosmos 2242 Rocket 4.1 17:53:46 10° SSW 17:58:17 65° W 18:02:48 10° N
Cosmos 2082 Rocket 2.7 17:54:15 10° N 17:59:33 38° ENE 18:04:47 10° SE
Ariane Rocket 3.0 17:56:12 10° SSE 18:01:16 77° ENE 18:06:22 10° N
Cosmos 2233 Rocket 4.0 17:55:18 10° S 18:01:31 73° E 18:07:43 10° NNE
ERS-2 3.1 17:59:17 10° SE 18:02:23 26° ENE 18:05:29 10° N
Sich 1 Rocket 3.9 17:58:54 10° N 18:03:10 45° ENE 18:07:27 10° SSE
USA 234 4.3 17:58:41 10° ENE 18:04:01 26° SE 18:09:19 10° S
Cosmos 841 Rocket 3.5 17:59:44 10° NNW 18:05:02 74° ENE 18:10:16 10° SSE
Okean 1-7 3.9 18:01:29 10° SSE 18:05:16 29° E 18:09:06 10° NNE
Meteor 1-20 Rocket 4.2 18:02:27 10° N 18:07:58 61° ENE 18:13:23 10° SSE
AQUARIUS 4.1 18:03:44 10° SSE 18:08:12 79° ENE 18:12:43 10° N
Cosmos 1782 3.3 18:06:07 10° SSE 18:09:50 38° E 18:13:34 10° NNE
Cosmos 405 Rocket 4.1 18:07:55 10° SE 18:10:32 18° E 18:11:48 16° ENE
Meteor 1-25 Rocket 4.3 18:05:16 10° N 18:11:08 72° E 18:16:54 10° SSE
ALOS 3.2 18:08:09 10° ESE 18:11:54 25° ENE 18:15:40 10° NNE
SMAP 3.2 18:14:23 10° S 18:19:01 79° WSW 18:23:42 10° NNW
Cosmos 1486 Rocket 4.0 18:14:20 10° SSW 18:19:33 90° SSW 18:24:50 10° NNE
Cosmos 1633 2.7 18:16:12 10° N 18:19:47 50° E 18:23:22 10° SSE
BREEZE-M DEB (TANK) 2.7 18:21:18 10° NW 18:23:12 31° NNE 18:24:07 24° ENE
Cosmos 1844 Rocket 4.4 18:19:56 10° WSW 18:24:45 28° NW 18:29:36 10° N
Cosmos 1782 Rocket 3.6 18:21:38 10° N 18:25:55 56° E 18:30:11 10° SSE
USA 116 3.7 18:22:56 10° NNE 18:27:23 77° E 18:31:16 10° S
BREEZE-M DEB (TANK) 3.8 18:28:40 10° WNW 18:30:48 31° N 18:32:13 21° NE
COSMO-SKYMED 1 2.8 18:28:22 10° NNE 18:32:35 48° E 18:36:47 10° S
YAOGAN 1 2.4 18:28:33 10° SSE 18:32:52 79° ENE 18:37:13 10° N
CZ-4C R/B 3.2 18:30:26 10° NNW 18:37:08 44° NE 18:43:23 15° ESE
Cosmos 1354 Rocket 4.0 18:32:33 10° S 18:37:47 68° ESE 18:42:49 11° NNE
Meteor 1-27 Rocket 4.3 18:32:25 10° SSE 18:37:47 38° E 18:43:14 10° NNE
FENGYUN 3A 3.9 18:34:30 10° SE 18:39:38 47° ENE 18:44:49 10° N
CENTAUR R/B 4.0 18:36:44 10° W 18:42:18 32° NW 18:48:33 10° NNE
Cosmos 1891 Rocket 4.4 18:38:45 10° S 18:44:46 58° E 18:50:43 10° NNE
SPOT 3 Rocket 3.5 18:39:45 10° SSE 18:44:52 60° ENE 18:50:01 10° N
Meteor 1-10 Rocket 4.2 18:41:56 10° S 18:47:36 76° E 18:53:24 10° NNE
Cosmos 1833 Rocket 2.7 18:47:34 10° NNW 18:53:13 84° WSW 18:58:50 10° SSE
Cosmos 2221 Rocket 3.5 18:50:11 10° S 18:54:35 88° W 18:59:02 10° N
Cosmos 1703 Rocket 4.3 18:50:16 10° SSW 18:54:39 55° W 18:59:03 10° N
Cosmos 2369 Rocket 4.3 18:53:16 10° SE 18:53:19 10° SE 18:53:19 10° SE
Cosmos 2151 Rocket 4.2 18:53:53 10° N 19:04:19 - SSE 18:57:05 35° NE
Nadezhda 4 Rocket 4.0 18:53:21 10° N 18:59:19 51° ENE 19:05:14 10° SSE
Cosmos 2297 3.7 18:55:26 10° SSW 19:01:09 84° WNW 19:05:45 17° NNE
Cosmos 2278 Rocket 3.6 18:59:34 10° WSW 19:04:45 36° WNW 19:09:58 10° N
Cosmos 2034 Rocket 3.9 19:00:39 10° S 19:07:00 76° E 19:13:20 10° N
Meteor 2-20 4.3 19:04:04 10° N 19:10:11 77° E 19:16:14 10° SSE
Cosmos 1606 4.3 19:07:40 10° SW 19:11:08 34° WNW 19:14:37 10° N
Okean 2 Rocket 3.3 19:06:40 10° NNW 19:11:12 74° W 19:15:41 10° S
NOAA 12 4.0 19:06:13 10° SSE 19:11:33 90° SW 19:16:53 10° NNW
Cosmos 1441 Rocket 3.1 19:07:44 10° S 19:11:41 82° E 19:12:08 67° NNE
Cosmos 405 3.0 19:08:39 10° NNW 19:12:15 83° W 19:15:50 10° S
Timation 2 Rocket 4.1 19:05:48 10° NNW 19:12:32 61° ENE 19:16:18 26° SE
Cosmos 44 Rocket 3.3 19:08:12 10° NW 19:13:06 83° WSW 19:16:23 22° SSE
Thor Agena Rocket 4.2 19:17:07 36° SE 19:17:07 36° SE 19:20:42 10° S
Meteor 1-11 Rocket 3.6 19:11:22 10° N 19:17:16 83° E 19:22:59 10° S
Cosmos 1092 Rocket 4.1 19:11:31 10° N 19:17:28 49° ENE 19:23:26 10° SSE
Cosmos 292 Rocket 3.9 19:14:55 10° NNW 19:19:40 70° WSW 19:24:22 10° S
SKYMED 2 4.4 19:16:24 10° N 19:20:37 50° WNW 19:24:49 10° SSW
EO 1 Del DPAF 4.2 19:18:45 19° N 19:21:09 46° WNW 19:24:47 10° SW
CZ-4 R/B 4.1 19:18:26 10° SW 19:21:11 19° W 19:23:57 10° NW
Lacrosse 5 3.8 19:23:40 10° NW 19:26:50 16° N 19:26:50 16° N
Cosmos 44 4.2 19:31:56 10° NW 19:36:27 46° WSW 19:39:53 17° S
Cosmos 968 Rocket 3.4 19:34:00 10° SSW 19:39:11 84° WNW 19:39:43 72° N
Cosmos 2082 Rocket 3.8 19:38:31 10° NW 19:43:32 33° WSW 19:48:31 10° SSW
USA 234 3.1 19:46:03 58° NE 19:47:30 87° NW 19:54:03 10° SW
ALOS 3.7 19:44:52 10° SSW 19:49:09 36° W 19:53:28 10° NNW
CZ-4C R/B 3.6 20:18:56 10° NW 20:25:57 52° WSW 20:28:42 37° SSW
Cosmos 2369 Rocket 4.5 20:34:20 10° SSW 20:35:10 15° SSW 20:35:10 15° SSW
USA 229 DEB 4.4 20:35:31 10° SW 20:40:14 46° WSW 20:40:14 46° WSW
USA 229 4.5 20:35:37 10° SW 20:40:17 46° WSW 20:40:17 46° WSW
